Year,Month,Day,Hour,Minute,Value (Times are PST for temperature in C)
2017,07,18,00,00,16.50
2017,07,18,00,01,16.40
2017,07,18,00,02,16.40
2017,07,18,00,03,16.40
2017,07,18,00,04,16.30
2017,07,18,00,05,16.30
2017,07,18,00,06,16.30
2017,07,18,00,07,16.30
2017,07,18,00,08,16.30
2017,07,18,00,09,16.30
2017,07,18,00,10,16.30
2017,07,18,00,11,16.30
2017,07,18,00,12,16.30
2017,07,18,00,13,16.30
2017,07,18,00,14,16.30
2017,07,18,00,15,16.30
2017,07,18,00,16,16.30
2017,07,18,00,17,16.30
2017,07,18,00,18,16.40
2017,07,18,00,19,16.40
2017,07,18,00,20,16.40
2017,07,18,00,21,16.50
2017,07,18,00,22,16.50
2017,07,18,00,23,16.50
2017,07,18,00,24,16.60
2017,07,18,00,25,16.60
2017,07,18,00,26,16.60
2017,07,18,00,27,16.60
2017,07,18,00,28,16.60
2017,07,18,00,29,16.70
2017,07,18,00,30,16.70
2017,07,18,00,31,16.70
2017,07,18,00,32,16.70
2017,07,18,00,33,16.60
2017,07,18,00,34,16.60
2017,07,18,00,35,16.60
2017,07,18,00,36,16.60
2017,07,18,00,37,16.60
2017,07,18,00,38,16.60
2017,07,18,00,39,16.50
2017,07,18,00,40,16.50
2017,07,18,00,41,16.50
2017,07,18,00,42,16.40
2017,07,18,00,43,16.40
2017,07,18,00,44,16.40
2017,07,18,00,45,16.40
2017,07,18,00,46,16.40
2017,07,18,00,47,16.30
2017,07,18,00,48,16.30
2017,07,18,00,49,16.30
2017,07,18,00,50,16.30
2017,07,18,00,51,16.30
2017,07,18,00,52,16.20
2017,07,18,00,53,16.20
2017,07,18,00,54,16.20
2017,07,18,00,55,16.20
2017,07,18,00,56,16.10
2017,07,18,00,57,16.10
2017,07,18,00,58,16.10
2017,07,18,00,59,16.10
2017,07,18,01,00,16.10
2017,07,18,01,01,16.10
2017,07,18,01,02,16.10
2017,07,18,01,03,16.10
2017,07,18,01,04,16.10
2017,07,18,01,05,16.10
2017,07,18,01,06,16.10
2017,07,18,01,07,16.20
2017,07,18,01,08,16.20
2017,07,18,01,09,16.20
2017,07,18,01,10,16.20
2017,07,18,01,11,16.20
2017,07,18,01,12,16.20
2017,07,18,01,13,16.20
2017,07,18,01,14,16.20
2017,07,18,01,15,16.10
2017,07,18,01,16,16.10
2017,07,18,01,17,16.10
2017,07,18,01,18,16.10
2017,07,18,01,19,16.10
2017,07,18,01,20,16.10
2017,07,18,01,21,16.10
2017,07,18,01,22,16.10
2017,07,18,01,23,16.10
2017,07,18,01,24,16.10
2017,07,18,01,25,16.10
2017,07,18,01,26,16.10
2017,07,18,01,27,16.20
2017,07,18,01,28,16.20
2017,07,18,01,29,16.20
2017,07,18,01,30,16.20
2017,07,18,01,31,16.20
2017,07,18,01,32,16.20
2017,07,18,01,33,16.20
2017,07,18,01,34,16.20
2017,07,18,01,35,16.20
2017,07,18,01,36,16.20
2017,07,18,01,37,16.10
2017,07,18,01,38,16.10
2017,07,18,01,39,16.10
2017,07,18,01,40,16.10
2017,07,18,01,41,16.10
2017,07,18,01,42,16.00
2017,07,18,01,43,16.00
2017,07,18,01,44,15.90
2017,07,18,01,45,15.90
2017,07,18,01,46,15.90
2017,07,18,01,47,15.80
2017,07,18,01,48,15.80
2017,07,18,01,49,15.80
2017,07,18,01,50,15.70
2017,07,18,01,51,15.70
2017,07,18,01,52,15.70
2017,07,18,01,53,15.60
2017,07,18,01,54,15.60
2017,07,18,01,55,15.60
2017,07,18,01,56,15.50
2017,07,18,01,57,15.50
2017,07,18,01,58,15.50
2017,07,18,01,59,15.40
2017,07,18,02,00,15.40
2017,07,18,02,01,15.30
2017,07,18,02,02,15.30
2017,07,18,02,03,15.30
2017,07,18,02,04,15.30
2017,07,18,02,05,15.30
2017,07,18,02,06,15.20
2017,07,18,02,07,15.20
2017,07,18,02,08,15.10
2017,07,18,02,09,15.10
2017,07,18,02,10,15.10
2017,07,18,02,11,15.00
2017,07,18,02,12,15.00
2017,07,18,02,13,14.90
2017,07,18,02,14,14.90
2017,07,18,02,15,14.80
2017,07,18,02,16,14.80
2017,07,18,02,17,14.80
2017,07,18,02,18,14.80
2017,07,18,02,19,14.80
2017,07,18,02,20,14.80
2017,07,18,02,21,14.70
2017,07,18,02,22,14.70
2017,07,18,02,23,14.70
2017,07,18,02,24,14.70
2017,07,18,02,25,14.70
2017,07,18,02,26,14.70
2017,07,18,02,27,14.60
2017,07,18,02,28,14.60
2017,07,18,02,29,14.60
2017,07,18,02,30,14.50
2017,07,18,02,31,14.50
2017,07,18,02,32,14.50
2017,07,18,02,33,14.50
2017,07,18,02,34,14.50
2017,07,18,02,35,14.50
2017,07,18,02,36,14.40
2017,07,18,02,37,14.40
2017,07,18,02,38,14.40
2017,07,18,02,39,14.40
2017,07,18,02,40,14.40
2017,07,18,02,41,14.40
2017,07,18,02,42,14.40
2017,07,18,02,43,14.40
2017,07,18,02,44,14.40
2017,07,18,02,45,14.30
2017,07,18,02,46,14.30
2017,07,18,02,47,14.30
2017,07,18,02,48,14.30
2017,07,18,02,49,14.20
2017,07,18,02,50,14.20
2017,07,18,02,51,14.20
2017,07,18,02,52,14.20
2017,07,18,02,53,14.10
2017,07,18,02,54,14.10
2017,07,18,02,55,14.10
2017,07,18,02,56,14.10
2017,07,18,02,57,14.10
2017,07,18,02,58,14.10
2017,07,18,02,59,14.10
2017,07,18,03,00,14.20
2017,07,18,03,01,14.20
2017,07,18,03,02,14.20
2017,07,18,03,03,14.30
2017,07,18,03,04,14.30
2017,07,18,03,05,14.30
2017,07,18,03,06,14.30
2017,07,18,03,07,14.30
2017,07,18,03,08,14.30
2017,07,18,03,09,14.30
2017,07,18,03,10,14.20
2017,07,18,03,11,14.20
2017,07,18,03,12,14.20
2017,07,18,03,13,14.20
2017,07,18,03,14,14.10
2017,07,18,03,15,14.10
2017,07,18,03,16,14.10
2017,07,18,03,17,14.10
2017,07,18,03,18,14.10
2017,07,18,03,19,14.10
2017,07,18,03,20,14.10
2017,07,18,03,21,14.10
2017,07,18,03,22,14.10
2017,07,18,03,23,14.10
2017,07,18,03,24,14.10
2017,07,18,03,25,14.10
2017,07,18,03,26,14.10
2017,07,18,03,27,14.10
2017,07,18,03,28,14.10
2017,07,18,03,29,14.10
2017,07,18,03,30,14.00
2017,07,18,03,31,14.00
2017,07,18,03,32,14.00
2017,07,18,03,33,13.90
2017,07,18,03,34,13.90
2017,07,18,03,35,13.90
2017,07,18,03,36,13.80
2017,07,18,03,37,13.70
2017,07,18,03,38,13.70
2017,07,18,03,39,13.60
2017,07,18,03,40,13.60
2017,07,18,03,41,13.50
2017,07,18,03,42,13.50
2017,07,18,03,43,13.40
2017,07,18,03,44,13.40
2017,07,18,03,45,13.30
2017,07,18,03,46,13.30
2017,07,18,03,47,13.30
2017,07,18,03,48,13.30
2017,07,18,03,49,13.20
2017,07,18,03,50,13.20
2017,07,18,03,51,13.20
2017,07,18,03,52,13.10
2017,07,18,03,53,13.10
2017,07,18,03,54,13.10
2017,07,18,03,55,13.10
2017,07,18,03,56,13.00
2017,07,18,03,57,13.00
2017,07,18,03,58,13.00
2017,07,18,03,59,13.00
2017,07,18,04,00,12.90
2017,07,18,04,01,12.90
2017,07,18,04,02,12.90
2017,07,18,04,03,12.90
2017,07,18,04,04,12.90
2017,07,18,04,05,12.80
2017,07,18,04,06,12.80
2017,07,18,04,07,12.80
2017,07,18,04,08,12.80
2017,07,18,04,09,12.80
2017,07,18,04,10,12.80
2017,07,18,04,11,12.80
2017,07,18,04,12,12.80
2017,07,18,04,13,12.80
2017,07,18,04,14,12.80
2017,07,18,04,15,12.80
2017,07,18,04,16,12.80
2017,07,18,04,17,12.80
2017,07,18,04,18,12.80
2017,07,18,04,19,12.80
2017,07,18,04,20,12.80
2017,07,18,04,21,12.80
2017,07,18,04,22,12.70
2017,07,18,04,23,12.70
2017,07,18,04,24,12.70
2017,07,18,04,25,12.70
2017,07,18,04,26,12.60
2017,07,18,04,27,12.60
2017,07,18,04,28,12.60
2017,07,18,04,29,12.60
2017,07,18,04,30,12.60
2017,07,18,04,31,12.50
2017,07,18,04,32,12.50
2017,07,18,04,33,12.50
2017,07,18,04,34,12.40
2017,07,18,04,35,12.40
2017,07,18,04,36,12.40
2017,07,18,04,37,12.40
2017,07,18,04,38,12.40
2017,07,18,04,39,12.40
2017,07,18,04,40,12.30
2017,07,18,04,41,12.30
2017,07,18,04,42,12.30
2017,07,18,04,43,12.30
2017,07,18,04,44,12.30
2017,07,18,04,45,12.30
2017,07,18,04,46,12.30
2017,07,18,04,47,12.30
2017,07,18,04,48,12.30
2017,07,18,04,49,12.30
2017,07,18,04,50,12.30
2017,07,18,04,51,12.30
2017,07,18,04,52,12.30
2017,07,18,04,53,12.30
2017,07,18,04,54,12.30
2017,07,18,04,55,12.30
2017,07,18,04,56,12.30
2017,07,18,04,57,12.30
2017,07,18,04,58,12.30
2017,07,18,04,59,12.30
2017,07,18,05,00,12.30
2017,07,18,05,01,12.30
2017,07,18,05,02,12.30
2017,07,18,05,03,12.30
2017,07,18,05,04,12.40
2017,07,18,05,05,12.40
2017,07,18,05,06,12.40
2017,07,18,05,07,12.40
2017,07,18,05,08,12.40
2017,07,18,05,09,12.40
2017,07,18,05,10,12.40
2017,07,18,05,11,12.40
2017,07,18,05,12,12.40
2017,07,18,05,13,12.40
2017,07,18,05,14,12.40
2017,07,18,05,15,12.40
2017,07,18,05,16,12.40
2017,07,18,05,17,12.40
2017,07,18,05,18,12.40
2017,07,18,05,19,12.40
2017,07,18,05,20,12.40
2017,07,18,05,21,12.40
2017,07,18,05,22,12.40
2017,07,18,05,23,12.30
2017,07,18,05,24,12.30
2017,07,18,05,25,12.30
2017,07,18,05,26,12.30
2017,07,18,05,27,12.30
2017,07,18,05,28,12.40
2017,07,18,05,29,12.40
2017,07,18,05,30,12.40
2017,07,18,05,31,12.40
2017,07,18,05,32,12.40
2017,07,18,05,33,12.40
2017,07,18,05,34,12.40
2017,07,18,05,35,12.40
2017,07,18,05,36,12.40
2017,07,18,05,37,12.40
2017,07,18,05,38,12.50
2017,07,18,05,39,12.50
2017,07,18,05,40,12.50
2017,07,18,05,41,12.60
2017,07,18,05,42,12.60
2017,07,18,05,43,12.60
2017,07,18,05,44,12.70
2017,07,18,05,45,12.70
2017,07,18,05,46,12.70
2017,07,18,05,47,12.70
2017,07,18,05,48,12.70
2017,07,18,05,49,12.70
2017,07,18,05,50,12.70
2017,07,18,05,51,12.70
2017,07,18,05,52,12.70
2017,07,18,05,53,12.70
2017,07,18,05,54,12.70
2017,07,18,05,55,12.70
2017,07,18,05,56,12.60
2017,07,18,05,57,12.60
2017,07,18,05,58,12.60
2017,07,18,05,59,12.60
2017,07,18,06,00,12.60
2017,07,18,06,01,12.60
2017,07,18,06,02,12.60
2017,07,18,06,03,12.60
2017,07,18,06,04,12.60
2017,07,18,06,05,12.70
2017,07,18,06,06,12.70
2017,07,18,06,07,12.70
2017,07,18,06,08,12.60
2017,07,18,06,09,12.60
2017,07,18,06,10,12.60
2017,07,18,06,11,12.60
2017,07,18,06,12,12.60
2017,07,18,06,13,12.60
2017,07,18,06,14,12.70
2017,07,18,06,15,12.70
2017,07,18,06,16,12.70
2017,07,18,06,17,12.80
2017,07,18,06,18,12.80
2017,07,18,06,19,12.90
2017,07,18,06,20,13.00
2017,07,18,06,21,13.10
2017,07,18,06,22,13.20
2017,07,18,06,23,13.20
2017,07,18,06,24,13.30
2017,07,18,06,25,13.30
2017,07,18,06,26,13.30
2017,07,18,06,27,13.40
2017,07,18,06,28,13.40
2017,07,18,06,29,13.50
2017,07,18,06,30,13.60
2017,07,18,06,31,13.70
2017,07,18,06,32,13.70
2017,07,18,06,33,13.80
2017,07,18,06,34,13.80
2017,07,18,06,35,13.80
2017,07,18,06,36,13.90
2017,07,18,06,37,13.90
2017,07,18,06,38,13.90
2017,07,18,06,39,13.90
2017,07,18,06,40,13.90
2017,07,18,06,41,13.90
2017,07,18,06,42,13.90
2017,07,18,06,43,13.80
2017,07,18,06,44,13.80
2017,07,18,06,45,13.80
2017,07,18,06,46,13.70
2017,07,18,06,47,13.70
2017,07,18,06,48,13.70
2017,07,18,06,49,13.60
2017,07,18,06,50,13.60
2017,07,18,06,51,13.50
2017,07,18,06,52,13.50
2017,07,18,06,53,13.40
2017,07,18,06,54,13.40
2017,07,18,06,55,13.30
2017,07,18,06,56,13.30
2017,07,18,06,57,13.20
2017,07,18,06,58,13.20
2017,07,18,06,59,13.10
2017,07,18,07,00,13.10
2017,07,18,07,01,13.10
2017,07,18,07,02,13.10
2017,07,18,07,03,13.10
2017,07,18,07,04,13.10
2017,07,18,07,05,13.10
2017,07,18,07,06,13.10
2017,07,18,07,07,13.10
2017,07,18,07,08,13.10
2017,07,18,07,09,13.00
2017,07,18,07,10,13.00
2017,07,18,07,11,13.00
2017,07,18,07,12,13.10
2017,07,18,07,13,13.10
2017,07,18,07,14,13.20
2017,07,18,07,15,13.20
2017,07,18,07,16,13.30
2017,07,18,07,17,13.30
2017,07,18,07,18,13.40
2017,07,18,07,19,13.50
2017,07,18,07,20,13.60
2017,07,18,07,21,13.70
2017,07,18,07,22,13.80
2017,07,18,07,23,13.90
2017,07,18,07,24,14.10
2017,07,18,07,25,14.20
2017,07,18,07,26,14.20
2017,07,18,07,27,14.30
2017,07,18,07,28,14.40
2017,07,18,07,29,14.50
2017,07,18,07,30,14.60
2017,07,18,07,31,14.70
2017,07,18,07,32,14.80
2017,07,18,07,33,14.90
2017,07,18,07,34,15.00
2017,07,18,07,35,15.00
2017,07,18,07,36,15.10
2017,07,18,07,37,15.20
2017,07,18,07,38,15.20
2017,07,18,07,39,15.30
2017,07,18,07,40,15.30
2017,07,18,07,41,15.40
2017,07,18,07,42,15.40
2017,07,18,07,43,15.40
2017,07,18,07,44,15.50
2017,07,18,07,45,15.50
2017,07,18,07,46,15.60
2017,07,18,07,47,15.60
2017,07,18,07,48,15.60
2017,07,18,07,49,15.60
2017,07,18,07,50,15.60
2017,07,18,07,51,15.70
2017,07,18,07,52,15.70
2017,07,18,07,53,15.80
2017,07,18,07,54,15.90
2017,07,18,07,55,16.00
2017,07,18,07,56,16.20
2017,07,18,07,57,16.30
2017,07,18,07,58,16.40
2017,07,18,07,59,16.50
2017,07,18,08,00,16.60
2017,07,18,08,01,16.70
2017,07,18,08,02,16.80
2017,07,18,08,03,16.90
2017,07,18,08,04,17.00
2017,07,18,08,05,17.20
2017,07,18,08,06,17.30
2017,07,18,08,07,17.40
2017,07,18,08,08,17.60
2017,07,18,08,09,17.70
2017,07,18,08,10,17.80
2017,07,18,08,11,17.90
2017,07,18,08,12,17.90
2017,07,18,08,13,18.00
2017,07,18,08,14,18.10
2017,07,18,08,15,18.10
2017,07,18,08,16,18.20
2017,07,18,08,17,18.10
2017,07,18,08,18,18.10
2017,07,18,08,19,18.00
2017,07,18,08,20,18.00
2017,07,18,08,21,18.10
2017,07,18,08,22,18.10
2017,07,18,08,23,18.20
2017,07,18,08,24,18.20
2017,07,18,08,25,18.20
2017,07,18,08,26,18.20
2017,07,18,08,27,18.30
2017,07,18,08,28,18.30
2017,07,18,08,29,18.30
2017,07,18,08,30,18.30
2017,07,18,08,31,18.40
2017,07,18,08,32,18.40
2017,07,18,08,33,18.50
2017,07,18,08,34,18.50
2017,07,18,08,35,18.50
2017,07,18,08,36,18.40
2017,07,18,08,37,18.40
2017,07,18,08,38,18.40
2017,07,18,08,39,18.30
2017,07,18,08,40,18.30
2017,07,18,08,41,18.30
2017,07,18,08,42,18.30
2017,07,18,08,43,18.30
2017,07,18,08,44,18.40
2017,07,18,08,45,18.40
2017,07,18,08,46,18.40
2017,07,18,08,47,18.40
2017,07,18,08,48,18.40
2017,07,18,08,49,18.50
2017,07,18,08,50,18.60
2017,07,18,08,51,18.60
2017,07,18,08,52,18.70
2017,07,18,08,53,18.70
2017,07,18,08,54,18.70
2017,07,18,08,55,18.70
2017,07,18,08,56,18.70
2017,07,18,08,57,18.80
2017,07,18,08,58,18.80
2017,07,18,08,59,18.90
2017,07,18,09,00,19.00
2017,07,18,09,01,19.10
2017,07,18,09,02,19.20
2017,07,18,09,03,19.20
2017,07,18,09,04,19.30
2017,07,18,09,05,19.30
2017,07,18,09,06,19.30
2017,07,18,09,07,19.30
2017,07,18,09,08,19.20
2017,07,18,09,09,19.20
2017,07,18,09,10,19.20
2017,07,18,09,11,19.20
2017,07,18,09,12,19.10
2017,07,18,09,13,19.10
2017,07,18,09,14,19.10
2017,07,18,09,15,19.10
2017,07,18,09,16,19.10
2017,07,18,09,17,19.20
2017,07,18,09,18,19.20
2017,07,18,09,19,19.30
2017,07,18,09,20,19.30
2017,07,18,09,21,19.40
2017,07,18,09,22,19.40
2017,07,18,09,23,19.50
2017,07,18,09,24,19.60
2017,07,18,09,25,19.60
2017,07,18,09,26,19.70
2017,07,18,09,27,19.70
2017,07,18,09,28,19.70
2017,07,18,09,29,19.80
2017,07,18,09,30,19.90
2017,07,18,09,31,19.90
2017,07,18,09,32,19.80
2017,07,18,09,33,19.70
2017,07,18,09,34,19.70
2017,07,18,09,35,19.60
2017,07,18,09,36,19.60
2017,07,18,09,37,19.60
2017,07,18,09,38,19.70
2017,07,18,09,39,19.70
2017,07,18,09,40,19.80
2017,07,18,09,41,19.90
2017,07,18,09,42,20.00
2017,07,18,09,43,20.10
2017,07,18,09,44,20.20
2017,07,18,09,45,20.20
2017,07,18,09,46,20.10
2017,07,18,09,47,20.10
2017,07,18,09,48,20.10
2017,07,18,09,49,20.10
2017,07,18,09,50,20.10
2017,07,18,09,51,20.10
2017,07,18,09,52,20.10
2017,07,18,09,53,20.10
2017,07,18,09,54,20.00
2017,07,18,09,55,20.10
2017,07,18,09,56,20.10
2017,07,18,09,57,20.30
2017,07,18,09,58,20.30
2017,07,18,09,59,20.40
2017,07,18,10,00,20.40
2017,07,18,10,01,20.40
2017,07,18,10,02,20.40
2017,07,18,10,03,20.50
2017,07,18,10,04,20.50
2017,07,18,10,05,20.60
2017,07,18,10,06,20.50
2017,07,18,10,07,20.50
2017,07,18,10,08,20.40
2017,07,18,10,09,20.30
2017,07,18,10,10,20.30
2017,07,18,10,11,20.30
2017,07,18,10,12,20.30
2017,07,18,10,13,20.30
2017,07,18,10,14,20.30
2017,07,18,10,15,20.30
2017,07,18,10,16,20.30
2017,07,18,10,17,20.30
2017,07,18,10,18,20.30
2017,07,18,10,19,20.30
2017,07,18,10,20,20.30
2017,07,18,10,21,20.30
2017,07,18,10,22,20.40
2017,07,18,10,23,20.50
2017,07,18,10,24,20.50
2017,07,18,10,25,20.50
2017,07,18,10,26,20.50
2017,07,18,10,27,20.40
2017,07,18,10,28,20.50
2017,07,18,10,29,20.50
2017,07,18,10,30,20.60
2017,07,18,10,31,20.70
2017,07,18,10,32,20.70
2017,07,18,10,33,20.80
2017,07,18,10,34,20.70
2017,07,18,10,35,20.70
2017,07,18,10,36,20.70
2017,07,18,10,37,20.80
2017,07,18,10,38,20.80
2017,07,18,10,39,20.90
2017,07,18,10,40,21.00
2017,07,18,10,41,21.20
2017,07,18,10,42,21.20
2017,07,18,10,43,21.30
2017,07,18,10,44,21.40
2017,07,18,10,45,21.30
2017,07,18,10,46,21.20
2017,07,18,10,47,21.20
2017,07,18,10,48,21.10
2017,07,18,10,49,21.10
2017,07,18,10,50,21.10
2017,07,18,10,51,21.10
2017,07,18,10,52,21.10
2017,07,18,10,53,21.10
2017,07,18,10,54,21.20
2017,07,18,10,55,21.20
2017,07,18,10,56,21.20
2017,07,18,10,57,21.20
2017,07,18,10,58,21.20
2017,07,18,10,59,21.20
2017,07,18,11,00,21.20
2017,07,18,11,01,21.20
2017,07,18,11,02,21.10
2017,07,18,11,03,21.00
2017,07,18,11,04,20.90
2017,07,18,11,05,20.80
2017,07,18,11,06,20.70
2017,07,18,11,07,20.70
2017,07,18,11,08,20.70
2017,07,18,11,09,20.70
2017,07,18,11,10,20.70
2017,07,18,11,11,20.70
2017,07,18,11,12,20.80
2017,07,18,11,13,20.80
2017,07,18,11,14,20.90
2017,07,18,11,15,20.90
2017,07,18,11,16,21.00
2017,07,18,11,17,21.00
2017,07,18,11,18,21.10
2017,07,18,11,19,21.10
2017,07,18,11,20,21.20
2017,07,18,11,21,21.20
2017,07,18,11,22,21.20
2017,07,18,11,23,21.30
2017,07,18,11,24,21.40
2017,07,18,11,25,21.40
2017,07,18,11,26,21.40
2017,07,18,11,27,21.30
2017,07,18,11,28,21.30
2017,07,18,11,29,21.30
2017,07,18,11,30,21.30
2017,07,18,11,31,21.30
2017,07,18,11,32,21.30
2017,07,18,11,33,21.30
2017,07,18,11,34,21.30
2017,07,18,11,35,21.30
2017,07,18,11,36,21.30
2017,07,18,11,37,21.20
2017,07,18,11,38,21.20
2017,07,18,11,39,21.10
2017,07,18,11,40,21.10
2017,07,18,11,41,21.10
2017,07,18,11,42,21.10
2017,07,18,11,43,21.20
2017,07,18,11,44,21.20
2017,07,18,11,45,21.30
2017,07,18,11,46,21.30
2017,07,18,11,47,21.40
2017,07,18,11,48,21.50
2017,07,18,11,49,21.60
2017,07,18,11,50,21.60
2017,07,18,11,51,21.70
2017,07,18,11,52,21.70
2017,07,18,11,53,21.70
2017,07,18,11,54,21.70
2017,07,18,11,55,21.70
2017,07,18,11,56,21.70
2017,07,18,11,57,21.70
2017,07,18,11,58,21.70
2017,07,18,11,59,21.70
2017,07,18,12,00,21.60
2017,07,18,12,01,21.60
2017,07,18,12,02,21.60
2017,07,18,12,03,21.70
2017,07,18,12,04,21.70
2017,07,18,12,05,21.70
2017,07,18,12,06,21.70
2017,07,18,12,07,21.70
2017,07,18,12,08,21.80
2017,07,18,12,09,21.80
2017,07,18,12,10,21.90
2017,07,18,12,11,21.90
2017,07,18,12,12,21.90
2017,07,18,12,13,22.00
2017,07,18,12,14,22.10
2017,07,18,12,15,22.10
2017,07,18,12,16,22.10
2017,07,18,12,17,22.10
2017,07,18,12,18,22.20
2017,07,18,12,19,22.30
2017,07,18,12,20,22.40
2017,07,18,12,21,22.50
2017,07,18,12,22,22.60
2017,07,18,12,23,22.60
2017,07,18,12,24,22.60
2017,07,18,12,25,22.60
2017,07,18,12,26,22.70
2017,07,18,12,27,22.70
2017,07,18,12,28,22.80
2017,07,18,12,29,22.80
2017,07,18,12,30,22.70
2017,07,18,12,31,22.70
2017,07,18,12,32,22.80
2017,07,18,12,33,22.80
2017,07,18,12,34,22.80
2017,07,18,12,35,22.80
2017,07,18,12,36,22.90
2017,07,18,12,37,23.00
2017,07,18,12,38,23.00
2017,07,18,12,39,23.10
2017,07,18,12,40,23.10
2017,07,18,12,41,23.00
2017,07,18,12,42,22.90
2017,07,18,12,43,22.90
2017,07,18,12,44,22.90
2017,07,18,12,45,22.90
2017,07,18,12,46,22.90
2017,07,18,12,47,22.90
2017,07,18,12,48,22.90
2017,07,18,12,49,23.00
2017,07,18,12,50,23.10
2017,07,18,12,51,23.10
2017,07,18,12,52,23.10
2017,07,18,12,53,23.20
2017,07,18,12,54,23.20
2017,07,18,12,55,23.20
2017,07,18,12,56,23.20
2017,07,18,12,57,23.30
2017,07,18,12,58,23.30
2017,07,18,12,59,23.30
2017,07,18,13,00,23.30
2017,07,18,13,01,23.40
2017,07,18,13,02,23.40
2017,07,18,13,03,23.50
2017,07,18,13,04,23.50
2017,07,18,13,05,23.50
2017,07,18,13,06,23.40
2017,07,18,13,07,23.30
2017,07,18,13,08,23.30
2017,07,18,13,09,23.30
2017,07,18,13,10,23.30
2017,07,18,13,11,23.30
2017,07,18,13,12,23.30
2017,07,18,13,13,23.30
2017,07,18,13,14,23.40
2017,07,18,13,15,23.40
2017,07,18,13,16,23.50
2017,07,18,13,17,23.50
2017,07,18,13,18,23.50
2017,07,18,13,19,23.50
2017,07,18,13,20,23.60
2017,07,18,13,21,23.70
2017,07,18,13,22,23.80
2017,07,18,13,23,23.90
2017,07,18,13,24,24.00
2017,07,18,13,25,24.10
2017,07,18,13,26,24.10
2017,07,18,13,27,24.10
2017,07,18,13,28,24.10
2017,07,18,13,29,24.10
2017,07,18,13,30,24.00
2017,07,18,13,31,23.90
2017,07,18,13,32,23.80
2017,07,18,13,33,23.80
2017,07,18,13,34,23.70
2017,07,18,13,35,23.80
2017,07,18,13,36,23.90
2017,07,18,13,37,23.90
2017,07,18,13,38,24.00
2017,07,18,13,39,24.00
2017,07,18,13,40,24.00
2017,07,18,13,41,24.10
2017,07,18,13,42,24.20
2017,07,18,13,43,24.30
2017,07,18,13,44,24.30
2017,07,18,13,45,24.40
2017,07,18,13,46,24.40
2017,07,18,13,47,24.30
2017,07,18,13,48,24.30
2017,07,18,13,49,24.30
2017,07,18,13,50,24.20
2017,07,18,13,51,24.30
2017,07,18,13,52,24.30
2017,07,18,13,53,24.30
2017,07,18,13,54,24.30
2017,07,18,13,55,24.30
2017,07,18,13,56,24.40
2017,07,18,13,57,24.50
2017,07,18,13,58,24.60
2017,07,18,13,59,24.60
2017,07,18,14,00,24.60
2017,07,18,14,01,24.60
2017,07,18,14,02,24.50
2017,07,18,14,03,24.40
2017,07,18,14,04,24.40
2017,07,18,14,05,24.30
2017,07,18,14,06,24.20
2017,07,18,14,07,24.20
2017,07,18,14,08,24.10
2017,07,18,14,09,24.20
2017,07,18,14,10,24.20
2017,07,18,14,11,24.30
2017,07,18,14,12,24.30
2017,07,18,14,13,24.40
2017,07,18,14,14,24.50
2017,07,18,14,15,24.60
2017,07,18,14,16,24.70
2017,07,18,14,17,24.70
2017,07,18,14,18,24.80
2017,07,18,14,19,24.80
2017,07,18,14,20,24.90
2017,07,18,14,21,24.90
2017,07,18,14,22,24.90
2017,07,18,14,23,24.90
2017,07,18,14,24,25.00
2017,07,18,14,25,25.10
2017,07,18,14,26,25.10
2017,07,18,14,27,25.20
2017,07,18,14,28,25.20
2017,07,18,14,29,25.20
2017,07,18,14,30,25.10
2017,07,18,14,31,25.00
2017,07,18,14,32,24.90
2017,07,18,14,33,24.90
2017,07,18,14,34,24.90
2017,07,18,14,35,24.90
2017,07,18,14,36,25.00
2017,07,18,14,37,25.10
2017,07,18,14,38,25.10
2017,07,18,14,39,25.20
2017,07,18,14,40,25.20
2017,07,18,14,41,25.20
2017,07,18,14,42,25.30
2017,07,18,14,43,25.40
2017,07,18,14,44,25.50
2017,07,18,14,45,25.60
2017,07,18,14,46,25.60
2017,07,18,14,47,25.60
2017,07,18,14,48,25.40
2017,07,18,14,49,25.20
2017,07,18,14,50,25.10
2017,07,18,14,51,25.00
2017,07,18,14,52,25.00
2017,07,18,14,53,24.90
2017,07,18,14,54,24.90
2017,07,18,14,55,24.80
2017,07,18,14,56,24.80
2017,07,18,14,57,24.70
2017,07,18,14,58,24.70
2017,07,18,14,59,24.70
2017,07,18,15,00,24.70
2017,07,18,15,01,24.60
2017,07,18,15,02,24.60
2017,07,18,15,03,24.70
2017,07,18,15,04,24.80
2017,07,18,15,05,24.80
2017,07,18,15,06,24.70
2017,07,18,15,07,24.70
2017,07,18,15,08,24.60
2017,07,18,15,09,24.50
2017,07,18,15,10,24.50
2017,07,18,15,11,24.50
2017,07,18,15,12,24.60
2017,07,18,15,13,24.70
2017,07,18,15,14,24.70
2017,07,18,15,15,24.80
2017,07,18,15,16,24.70
2017,07,18,15,17,24.70
2017,07,18,15,18,24.70
2017,07,18,15,19,24.70
2017,07,18,15,20,24.70
2017,07,18,15,21,24.80
2017,07,18,15,22,24.80
2017,07,18,15,23,24.90
2017,07,18,15,24,25.00
2017,07,18,15,25,25.10
2017,07,18,15,26,25.20
2017,07,18,15,27,25.30
2017,07,18,15,28,25.30
2017,07,18,15,29,25.40
2017,07,18,15,30,25.40
2017,07,18,15,31,25.40
2017,07,18,15,32,25.40
2017,07,18,15,33,25.40
2017,07,18,15,34,25.40
2017,07,18,15,35,25.30
2017,07,18,15,36,25.30
2017,07,18,15,37,25.20
2017,07,18,15,38,25.20
2017,07,18,15,39,25.20
2017,07,18,15,40,25.20
2017,07,18,15,41,25.30
2017,07,18,15,42,25.40
2017,07,18,15,43,25.50
2017,07,18,15,44,25.60
2017,07,18,15,45,25.60
2017,07,18,15,46,25.60
2017,07,18,15,47,25.60
2017,07,18,15,48,25.60
2017,07,18,15,49,25.50
2017,07,18,15,50,25.50
2017,07,18,15,51,25.50
2017,07,18,15,52,25.50
2017,07,18,15,53,25.40
2017,07,18,15,54,25.40
2017,07,18,15,55,25.40
2017,07,18,15,56,25.40
2017,07,18,15,57,25.40
2017,07,18,15,58,25.40
2017,07,18,15,59,25.40
2017,07,18,16,00,25.40
2017,07,18,16,01,25.40
2017,07,18,16,02,25.30
2017,07,18,16,03,25.30
2017,07,18,16,04,25.30
2017,07,18,16,05,25.30
2017,07,18,16,06,25.30
2017,07,18,16,07,25.40
2017,07,18,16,08,25.40
2017,07,18,16,09,25.40
2017,07,18,16,10,25.40
2017,07,18,16,11,25.40
2017,07,18,16,12,25.40
2017,07,18,16,13,25.40
2017,07,18,16,14,25.50
2017,07,18,16,15,25.60
2017,07,18,16,16,25.60
2017,07,18,16,17,25.60
2017,07,18,16,18,25.60
2017,07,18,16,19,25.60
2017,07,18,16,20,25.70
2017,07,18,16,21,25.70
2017,07,18,16,22,25.70
2017,07,18,16,23,25.70
2017,07,18,16,24,25.70
2017,07,18,16,25,25.70
2017,07,18,16,26,25.70
2017,07,18,16,27,25.60
2017,07,18,16,28,25.60
2017,07,18,16,29,25.60
2017,07,18,16,30,25.60
2017,07,18,16,31,25.60
2017,07,18,16,32,25.60
2017,07,18,16,33,25.60
2017,07,18,16,34,25.60
2017,07,18,16,35,25.50
2017,07,18,16,36,25.40
2017,07,18,16,37,25.40
2017,07,18,16,38,25.30
2017,07,18,16,39,25.30
2017,07,18,16,40,25.30
2017,07,18,16,41,25.30
2017,07,18,16,42,25.20
2017,07,18,16,43,25.20
2017,07,18,16,44,25.20
2017,07,18,16,45,25.20
2017,07,18,16,46,25.20
2017,07,18,16,47,25.20
2017,07,18,16,48,25.20
2017,07,18,16,49,25.20
2017,07,18,16,50,25.20
2017,07,18,16,51,25.20
2017,07,18,16,52,25.30
2017,07,18,16,53,25.30
2017,07,18,16,54,25.30
2017,07,18,16,55,25.30
2017,07,18,16,56,25.30
2017,07,18,16,57,25.30
2017,07,18,16,58,25.30
2017,07,18,16,59,25.30
2017,07,18,17,00,25.30
2017,07,18,17,01,25.30
2017,07,18,17,02,25.40
2017,07,18,17,03,25.50
2017,07,18,17,04,25.50
2017,07,18,17,05,25.60
2017,07,18,17,06,25.60
2017,07,18,17,07,25.70
2017,07,18,17,08,25.70
2017,07,18,17,09,25.80
2017,07,18,17,10,25.90
2017,07,18,17,11,25.90
2017,07,18,17,12,25.90
2017,07,18,17,13,25.90
2017,07,18,17,14,26.00
2017,07,18,17,15,26.00
2017,07,18,17,16,26.10
2017,07,18,17,17,26.10
2017,07,18,17,18,26.00
2017,07,18,17,19,26.00